Time,TemperatureF,DewpointF,PressureIn,WindDirection,WindDirectionDegrees,WindSpeedMPH,WindSpeedGustMPH,Humidity,HourlyPrecipIn,Conditions,Clouds,dailyrainin,SoftwareType,DateUTC
2013-12-19 00:00:00,26.3,21.3,30.13,West,267,2.0,8.0,81,0.00,,,0.13,Wunderground v.1.15,2013-12-19 05:00:00,
2013-12-19 00:05:00,26.3,21.3,30.13,WNW,287,2.0,8.0,81,0.00,,,0.00,Wunderground v.1.15,2013-12-19 05:05:00,
2013-12-19 00:10:00,26.2,21.2,30.14,WNW,290,1.0,8.0,81,0.00,,,0.00,Wunderground v.1.15,2013-12-19 05:10:00,
2013-12-19 00:15:00,26.2,21.2,30.13,WNW,291,1.0,8.0,81,0.00,,,0.00,Wunderground v.1.15,2013-12-19 05:15:00,
2013-12-19 00:20:00,26.1,21.1,30.13,West,269,2.0,8.0,81,0.00,,,0.00,Wunderground v.1.15,2013-12-19 05:20:00,
2013-12-19 00:25:00,26.1,21.1,30.13,WNW,282,3.0,8.0,81,0.00,,,0.00,Wunderground v.1.15,2013-12-19 05:25:00,
2013-12-19 00:35:00,26.1,21.1,30.14,WNW,300,2.0,8.0,81,0.00,,,0.00,Wunderground v.1.15,2013-12-19 05:35:00,
2013-12-19 00:40:00,26.1,21.1,30.14,WNW,295,2.0,2.0,81,0.00,,,0.00,Wunderground v.1.15,2013-12-19 05:40:00,
2013-12-19 00:45:00,26.1,21.1,30.15,WNW,302,2.0,8.0,81,0.00,,,0.00,Wunderground v.1.15,2013-12-19 05:45:00,
2013-12-19 00:50:00,26.1,21.1,30.15,WNW,293,2.0,2.0,81,0.00,,,0.00,Wunderground v.1.15,2013-12-19 05:50:00,
2013-12-19 00:55:00,26.0,21.0,30.15,NW,323,2.0,8.0,81,0.00,,,0.00,Wunderground v.1.15,2013-12-19 05:55:00,
2013-12-19 01:00:00,26.0,21.0,30.15,West,261,1.0,8.0,81,0.00,,,0.00,Wunderground v.1.15,2013-12-19 06:00:00,
2013-12-19 01:05:00,26.0,21.0,30.15,WNW,290,2.0,8.0,81,0.00,,,0.00,Wunderground v.1.15,2013-12-19 06:05:00,
2013-12-19 01:15:00,25.9,20.9,30.15,North,355,1.0,8.0,81,0.00,,,0.00,Wunderground v.1.15,2013-12-19 06:15:00,
2013-12-19 01:20:00,25.8,20.8,30.15,WNW,294,1.0,1.0,81,0.00,,,0.00,Wunderground v.1.15,2013-12-19 06:20:00,
2013-12-19 01:25:00,25.8,20.8,30.16,NNW,342,1.0,8.0,81,0.00,,,0.00,Wunderground v.1.15,2013-12-19 06:25:00,
2013-12-19 01:30:00,25.8,20.8,30.15,NW,310,1.0,8.0,81,0.00,,,0.00,Wunderground v.1.15,2013-12-19 06:30:00,
2013-12-19 01:35:00,25.7,20.7,30.15,NW,304,1.0,8.0,81,0.00,,,0.00,Wunderground v.1.15,2013-12-19 06:35:00,
2013-12-19 01:40:00,25.6,20.6,30.15,NW,319,1.0,8.0,81,0.00,,,0.00,Wunderground v.1.15,2013-12-19 06:40:00,
2013-12-19 01:45:00,25.6,20.6,30.14,NW,319,1.0,8.0,81,0.00,,,0.00,Wunderground v.1.15,2013-12-19 06:45:00,
2013-12-19 01:50:00,25.7,20.7,30.14,NW,320,1.0,8.0,81,0.00,,,0.00,Wunderground v.1.15,2013-12-19 06:50:00,
2013-12-19 01:55:00,25.6,20.9,30.15,NNW,329,0.0,8.0,82,0.00,,,0.00,Wunderground v.1.15,2013-12-19 06:55:00,
2013-12-19 02:00:00,25.4,20.7,30.15,North,360,0.0,8.0,82,0.00,,,0.00,Wunderground v.1.15,2013-12-19 07:00:00,
2013-12-19 02:10:00,25.2,20.5,30.15,North,360,0.0,8.0,82,0.00,,,0.00,Wunderground v.1.15,2013-12-19 07:10:00,
2013-12-19 02:15:00,25.2,20.5,30.15,NNW,337,0.0,8.0,82,0.00,,,0.00,Wunderground v.1.15,2013-12-19 07:15:00,
2013-12-19 02:20:00,25.2,20.5,30.16,NNW,337,0.0,8.0,82,0.00,,,0.00,Wunderground v.1.15,2013-12-19 07:20:00,
2013-12-19 02:25:00,25.1,20.4,30.15,NNW,337,0.0,8.0,82,0.00,,,0.00,Wunderground v.1.15,2013-12-19 07:25:00,
2013-12-19 02:30:00,25.0,20.3,30.15,NE,43,0.0,8.0,82,0.00,,,0.00,Wunderground v.1.15,2013-12-19 07:30:00,
2013-12-19 02:35:00,25.0,20.3,30.15,West,274,1.0,8.0,82,0.00,,,0.00,Wunderground v.1.15,2013-12-19 07:35:00,
2013-12-19 02:45:00,25.1,20.4,30.16,West,274,0.0,8.0,82,0.00,,,0.00,Wunderground v.1.15,2013-12-19 07:45:00,
2013-12-19 02:50:00,25.2,20.5,30.17,NW,306,0.0,8.0,82,0.00,,,0.00,Wunderground v.1.15,2013-12-19 07:50:00,
2013-12-19 02:55:00,25.2,20.5,30.16,WNW,303,0.0,8.0,82,0.00,,,0.00,Wunderground v.1.15,2013-12-19 07:55:00,
2013-12-19 03:00:00,25.2,20.5,30.16,WNW,302,0.0,8.0,82,0.00,,,0.00,Wunderground v.1.15,2013-12-19 08:00:00,
2013-12-19 03:05:00,25.1,20.4,30.15,WNW,285,1.0,8.0,82,0.00,,,0.00,Wunderground v.1.15,2013-12-19 08:05:00,
2013-12-19 03:10:00,25.0,20.0,30.14,West,274,1.0,1.0,81,0.00,,,0.00,Wunderground v.1.15,2013-12-19 08:10:00,
2013-12-19 03:15:00,24.9,20.2,30.15,WNW,298,1.0,8.0,82,0.00,,,0.00,Wunderground v.1.15,2013-12-19 08:15:00,
2013-12-19 03:20:00,24.9,20.2,30.15,WNW,288,1.0,8.0,82,0.00,,,0.00,Wunderground v.1.15,2013-12-19 08:20:00,
2013-12-19 03:25:00,25.0,20.3,30.15,WNW,291,1.0,8.0,82,0.00,,,0.00,Wunderground v.1.15,2013-12-19 08:25:00,
2013-12-19 03:35:00,25.2,20.5,30.15,West,268,1.0,8.0,82,0.00,,,0.00,Wunderground v.1.15,2013-12-19 08:35:00,
2013-12-19 03:45:00,25.2,20.5,30.14,West,273,1.0,8.0,82,0.00,,,0.00,Wunderground v.1.15,2013-12-19 08:45:00,
2013-12-19 03:50:00,25.3,20.3,30.14,WNW,294,1.0,8.0,81,0.00,,,0.00,Wunderground v.1.15,2013-12-19 08:50:00,
2013-12-19 03:55:00,25.3,20.6,30.15,WNW,300,1.0,8.0,82,0.00,,,0.00,Wunderground v.1.15,2013-12-19 08:55:00,
2013-12-19 04:00:00,25.5,20.5,30.14,WNW,298,1.0,1.0,81,0.00,,,0.00,Wunderground v.1.15,2013-12-19 09:00:00,
2013-12-19 04:05:00,25.7,20.7,30.14,WNW,300,1.0,8.0,81,0.00,,,0.00,Wunderground v.1.15,2013-12-19 09:05:00,
2013-12-19 04:10:00,25.8,20.5,30.14,WNW,300,1.0,1.0,80,0.00,,,0.00,Wunderground v.1.15,2013-12-19 09:10:00,
2013-12-19 04:15:00,25.8,20.5,30.14,West,268,1.0,8.0,80,0.00,,,0.00,Wunderground v.1.15,2013-12-19 09:15:00,
2013-12-19 04:20:00,25.9,20.6,30.14,WNW,296,1.0,8.0,80,0.00,,,0.00,Wunderground v.1.15,2013-12-19 09:20:00,
2013-12-19 04:30:00,25.8,20.5,30.14,WNW,294,1.0,8.0,80,0.00,,,0.00,Wunderground v.1.15,2013-12-19 09:30:00,
2013-12-19 04:35:00,25.8,20.2,30.14,West,281,1.0,8.0,79,0.00,,,0.00,Wunderground v.1.15,2013-12-19 09:35:00,
2013-12-19 04:40:00,25.8,20.2,30.14,WNW,300,1.0,1.0,79,0.00,,,0.00,Wunderground v.1.15,2013-12-19 09:40:00,
2013-12-19 04:45:00,25.7,20.4,30.13,WNW,296,1.0,8.0,80,0.00,,,0.00,Wunderground v.1.15,2013-12-19 09:45:00,
2013-12-19 04:50:00,25.6,20.3,30.13,WNW,296,1.0,8.0,80,0.00,,,0.00,Wunderground v.1.15,2013-12-19 09:50:00,
2013-12-19 04:55:00,25.4,20.1,30.13,NW,304,0.0,8.0,80,0.00,,,0.00,Wunderground v.1.15,2013-12-19 09:55:00,
2013-12-19 05:05:00,25.3,20.0,30.13,West,269,1.0,8.0,80,0.00,,,0.00,Wunderground v.1.15,2013-12-19 10:05:00,
2013-12-19 05:10:00,25.3,20.0,30.13,West,269,1.0,1.0,80,0.00,,,0.00,Wunderground v.1.15,2013-12-19 10:10:00,
2013-12-19 05:15:00,25.3,20.0,30.13,WNW,289,1.0,2.0,80,0.00,,,0.00,Wunderground v.1.15,2013-12-19 10:15:00,
2013-12-19 05:20:00,25.3,20.0,30.13,WNW,289,1.0,8.0,80,0.00,,,0.00,Wunderground v.1.15,2013-12-19 10:20:00,
2013-12-19 05:25:00,25.3,20.0,30.12,WSW,248,1.0,8.0,80,0.00,,,0.00,Wunderground v.1.15,2013-12-19 10:25:00,
2013-12-19 05:30:00,25.4,20.1,30.11,West,276,1.0,1.0,80,0.00,,,0.00,Wunderground v.1.15,2013-12-19 10:30:00,
2013-12-19 05:40:00,25.3,20.0,30.11,WNW,289,0.0,8.0,80,0.00,,,0.00,Wunderground v.1.15,2013-12-19 10:40:00,
2013-12-19 05:45:00,25.1,19.8,30.12,WNW,292,1.0,8.0,80,0.00,,,0.00,Wunderground v.1.15,2013-12-19 10:45:00,
2013-12-19 05:55:00,24.9,19.9,30.12,WNW,287,1.0,8.0,81,0.00,,,0.00,Wunderground v.1.15,2013-12-19 10:55:00,
2013-12-19 06:00:00,25.1,20.1,30.12,West,281,1.0,8.0,81,0.00,,,0.00,Wunderground v.1.15,2013-12-19 11:00:00,
2013-12-19 06:05:00,25.1,20.1,30.12,NW,309,2.0,8.0,81,0.00,,,0.00,Wunderground v.1.15,2013-12-19 11:05:00,
2013-12-19 06:10:00,25.3,20.3,30.12,WNW,285,2.0,2.0,81,0.00,,,0.00,Wunderground v.1.15,2013-12-19 11:10:00,
2013-12-19 06:15:00,25.3,20.3,30.12,WNW,288,2.0,8.0,81,0.00,,,0.00,Wunderground v.1.15,2013-12-19 11:15:00,
2013-12-19 06:25:00,25.6,20.3,30.12,WNW,292,3.0,3.0,80,0.00,,,0.00,Wunderground v.1.15,2013-12-19 11:25:00,
2013-12-19 06:35:00,25.8,20.5,30.12,WNW,298,3.0,8.0,80,0.00,,,0.00,Wunderground v.1.15,2013-12-19 11:35:00,
2013-12-19 06:40:00,25.7,20.4,30.12,West,259,3.0,8.0,80,0.00,,,0.00,Wunderground v.1.15,2013-12-19 11:40:00,
2013-12-19 06:45:00,25.5,20.2,30.12,West,271,2.0,8.0,80,0.00,,,0.00,Wunderground v.1.15,2013-12-19 11:45:00,
2013-12-19 06:50:00,25.4,20.1,30.12,WNW,294,2.0,8.0,80,0.00,,,0.00,Wunderground v.1.15,2013-12-19 11:50:00,
2013-12-19 06:55:00,25.5,20.2,30.12,WNW,300,3.0,8.0,80,0.00,,,0.00,Wunderground v.1.15,2013-12-19 11:55:00,
2013-12-19 07:05:00,25.3,20.0,30.11,WNW,292,3.0,8.0,80,0.00,,,0.00,Wunderground v.1.15,2013-12-19 12:05:00,
2013-12-19 07:10:00,25.2,19.9,30.11,WNW,300,2.0,8.0,80,0.00,,,0.00,Wunderground v.1.15,2013-12-19 12:10:00,
2013-12-19 07:15:00,25.1,20.1,30.11,NW,305,2.0,8.0,81,0.00,,,0.00,Wunderground v.1.15,2013-12-19 12:15:00,
2013-12-19 07:20:00,24.9,19.9,30.11,West,275,2.0,8.0,81,0.00,,,0.00,Wunderground v.1.15,2013-12-19 12:20:00,
2013-12-19 07:25:00,24.8,19.8,30.12,West,279,1.0,8.0,81,0.00,,,0.00,Wunderground v.1.15,2013-12-19 12:25:00,
2013-12-19 07:30:00,25.0,20.0,30.12,WNW,302,2.0,8.0,81,0.00,,,0.00,Wunderground v.1.15,2013-12-19 12:30:00,
2013-12-19 07:35:00,25.1,20.1,30.11,NW,309,2.0,8.0,81,0.00,,,0.00,Wunderground v.1.15,2013-12-19 12:35:00,
2013-12-19 07:40:00,25.5,20.5,30.11,WNW,290,3.0,8.0,81,0.00,,,0.00,Wunderground v.1.15,2013-12-19 12:40:00,
2013-12-19 07:50:00,26.1,20.8,30.12,West,281,3.0,3.0,80,0.00,,,0.00,Wunderground v.1.15,2013-12-19 12:50:00,
2013-12-19 07:55:00,26.4,20.8,30.12,NW,316,4.0,6.0,79,0.00,,,0.00,Wunderground v.1.15,2013-12-19 12:55:00,
2013-12-19 08:00:00,26.7,21.1,30.11,West,279,4.0,8.0,79,0.00,,,0.00,Wunderground v.1.15,2013-12-19 13:00:00,
2013-12-19 08:05:00,27.0,21.4,30.12,WNW,288,4.0,8.0,79,0.00,,,0.00,Wunderground v.1.15,2013-12-19 13:05:00,
2013-12-19 08:10:00,27.2,21.5,30.12,WNW,297,4.0,4.0,79,0.00,,,0.00,Wunderground v.1.15,2013-12-19 13:10:00,
2013-12-19 08:15:00,27.5,21.8,30.11,WNW,290,3.0,8.0,79,0.00,,,0.00,Wunderground v.1.15,2013-12-19 13:15:00,
2013-12-19 08:20:00,27.5,21.5,30.12,WNW,296,3.0,3.0,78,0.00,,,0.00,Wunderground v.1.15,2013-12-19 13:20:00,
2013-12-19 08:25:00,27.5,21.5,30.11,WSW,246,4.0,4.0,78,0.00,,,0.00,Wunderground v.1.15,2013-12-19 13:25:00,
2013-12-19 08:35:00,27.4,21.4,30.11,WNW,300,3.0,6.0,78,0.00,,,0.00,Wunderground v.1.15,2013-12-19 13:35:00,
2013-12-19 08:40:00,27.7,21.7,30.12,WNW,300,3.0,8.0,78,0.00,,,0.00,Wunderground v.1.15,2013-12-19 13:40:00,
2013-12-19 08:45:00,28.1,21.8,30.11,West,261,3.0,8.0,77,0.00,,,0.00,Wunderground v.1.15,2013-12-19 13:45:00,
2013-12-19 08:50:00,28.3,22.0,30.12,NW,322,3.0,8.0,77,0.00,,,0.00,Wunderground v.1.15,2013-12-19 13:50:00,
2013-12-19 08:55:00,28.3,21.7,30.12,West,276,5.0,8.0,76,0.00,,,0.00,Wunderground v.1.15,2013-12-19 13:55:00,
2013-12-19 09:00:00,28.5,21.9,30.11,WSW,246,4.0,8.0,76,0.00,,,0.00,Wunderground v.1.15,2013-12-19 14:00:00,
2013-12-19 09:05:00,28.8,22.2,30.11,NW,306,4.0,8.0,76,0.00,,,0.00,Wunderground v.1.15,2013-12-19 14:05:00,
2013-12-19 09:10:00,28.9,22.3,30.12,West,276,4.0,4.0,76,0.00,,,0.00,Wunderground v.1.15,2013-12-19 14:10:00,
2013-12-19 09:15:00,28.8,21.9,30.11,WNW,295,4.0,8.0,75,0.00,,,0.00,Wunderground v.1.15,2013-12-19 14:15:00,
2013-12-19 09:25:00,28.4,21.8,30.11,WNW,286,4.0,8.0,76,0.00,,,0.00,Wunderground v.1.15,2013-12-19 14:25:00,
2013-12-19 09:30:00,28.4,21.8,30.11,West,280,3.0,8.0,76,0.00,,,0.00,Wunderground v.1.15,2013-12-19 14:30:00,
2013-12-19 09:35:00,28.6,22.0,30.11,West,262,3.0,8.0,76,0.00,,,0.00,Wunderground v.1.15,2013-12-19 14:35:00,
2013-12-19 09:40:00,29.2,22.6,30.11,WNW,286,3.0,3.0,76,0.00,,,0.00,Wunderground v.1.15,2013-12-19 14:40:00,
2013-12-19 09:45:00,29.6,22.6,30.11,North,355,3.0,5.0,75,0.00,,,0.00,Wunderground v.1.15,2013-12-19 14:45:00,
2013-12-19 09:50:00,30.1,22.8,30.11,West,273,4.0,8.0,74,0.00,,,0.00,Wunderground v.1.15,2013-12-19 14:50:00,
2013-12-19 09:55:00,30.4,23.1,30.10,WSW,253,4.0,8.0,74,0.00,,,0.00,Wunderground v.1.15,2013-12-19 14:55:00,
2013-12-19 10:00:00,30.8,23.2,30.10,NW,306,4.0,4.0,73,0.00,,,0.00,Wunderground v.1.15,2013-12-19 15:00:00,
2013-12-19 10:05:00,31.2,23.5,30.10,NW,309,4.0,8.0,73,0.00,,,0.00,Wunderground v.1.15,2013-12-19 15:05:00,
2013-12-19 10:10:00,31.5,23.5,30.10,NW,304,4.0,4.0,72,0.00,,,0.00,Wunderground v.1.15,2013-12-19 15:10:00,
2013-12-19 10:20:00,31.9,23.2,30.10,WNW,294,4.0,4.0,70,0.00,,,0.00,Wunderground v.1.15,2013-12-19 15:20:00,
2013-12-19 10:25:00,32.1,23.4,30.09,WNW,294,5.0,5.0,70,0.00,,,0.00,Wunderground v.1.15,2013-12-19 15:25:00,
2013-12-19 10:30:00,32.5,23.8,30.09,NW,306,4.0,9.0,70,0.00,,,0.00,Wunderground v.1.15,2013-12-19 15:30:00,
2013-12-19 10:35:00,32.8,23.7,30.09,NW,314,5.0,9.0,69,0.00,,,0.00,Wunderground v.1.15,2013-12-19 15:35:00,
2013-12-19 10:40:00,33.3,24.2,30.09,WNW,284,5.0,5.0,69,0.00,,,0.00,Wunderground v.1.15,2013-12-19 15:40:00,
2013-12-19 10:45:00,33.8,24.4,30.08,North,5,4.0,8.0,68,0.00,,,0.00,Wunderground v.1.15,2013-12-19 15:45:00,
2013-12-19 10:50:00,34.1,23.9,30.08,West,260,4.0,8.0,66,0.00,,,0.00,Wunderground v.1.15,2013-12-19 15:50:00,
2013-12-19 11:00:00,34.6,24.0,30.07,WSW,245,5.0,8.0,65,0.00,,,0.00,Wunderground v.1.15,2013-12-19 16:00:00,
2013-12-19 11:10:00,35.4,24.4,30.06,West,263,5.0,5.0,64,0.00,,,0.00,Wunderground v.1.15,2013-12-19 16:10:00,
2013-12-19 11:15:00,35.7,24.3,30.06,WSW,253,4.0,8.0,63,0.00,,,0.00,Wunderground v.1.15,2013-12-19 16:15:00,
2013-12-19 11:20:00,36.0,23.8,30.06,West,274,5.0,8.0,61,0.00,,,0.01,Wunderground v.1.15,2013-12-19 16:20:00,
2013-12-19 11:25:00,36.4,24.2,30.06,WNW,293,4.0,8.0,61,0.00,,,0.01,Wunderground v.1.15,2013-12-19 16:25:00,
2013-12-19 11:30:00,36.8,24.6,30.06,West,264,4.0,8.0,61,0.00,,,0.01,Wunderground v.1.15,2013-12-19 16:30:00,
2013-12-19 11:35:00,37.1,24.5,30.06,West,279,4.0,8.0,60,0.00,,,0.01,Wunderground v.1.15,2013-12-19 16:35:00,
2013-12-19 11:40:00,37.3,24.3,30.05,WNW,290,4.0,8.0,59,0.00,,,0.01,Wunderground v.1.15,2013-12-19 16:40:00,
2013-12-19 11:45:00,37.3,23.9,30.04,WNW,291,5.0,8.0,58,0.00,,,0.01,Wunderground v.1.15,2013-12-19 16:45:00,
2013-12-19 11:50:00,37.7,24.2,30.03,WNW,290,5.0,5.0,58,0.00,,,0.01,Wunderground v.1.15,2013-12-19 16:50:00,
2013-12-19 11:55:00,37.9,24.0,30.04,WNW,294,4.0,8.0,57,0.00,,,0.01,Wunderground v.1.15,2013-12-19 16:55:00,
2013-12-19 12:00:00,38.1,23.8,30.04,West,267,5.0,5.0,56,0.00,,,0.01,Wunderground v.1.15,2013-12-19 17:00:00,
2013-12-19 12:05:00,38.4,24.1,30.04,NW,304,5.0,8.0,56,0.00,,,0.01,Wunderground v.1.15,2013-12-19 17:05:00,
2013-12-19 12:10:00,38.8,24.9,30.03,NW,304,3.0,3.0,57,0.00,,,0.01,Wunderground v.1.15,2013-12-19 17:10:00,
2013-12-19 12:20:00,39.2,24.4,30.03,WNW,298,4.0,8.0,55,0.00,,,0.02,Wunderground v.1.15,2013-12-19 17:20:00,
2013-12-19 12:25:00,39.1,24.7,30.03,NW,306,5.0,8.0,56,0.00,,,0.02,Wunderground v.1.15,2013-12-19 17:25:00,
2013-12-19 12:30:00,39.7,24.8,30.03,NW,313,4.0,4.0,55,0.00,,,0.02,Wunderground v.1.15,2013-12-19 17:30:00,
2013-12-19 12:35:00,40.4,25.5,30.03,NNW,328,2.0,8.0,55,0.04,,,0.03,Wunderground v.1.15,2013-12-19 17:35:00,
2013-12-19 12:45:00,40.3,25.0,30.02,West,279,4.0,10.0,54,0.07,,,0.04,Wunderground v.1.15,2013-12-19 17:45:00,
2013-12-19 12:50:00,40.2,24.9,30.02,NW,309,4.0,11.0,54,0.06,,,0.05,Wunderground v.1.15,2013-12-19 17:50:00,
2013-12-19 12:55:00,39.9,24.6,30.02,NNW,329,4.0,11.0,54,0.06,,,0.05,Wunderground v.1.15,2013-12-19 17:55:00,
2013-12-19 13:00:00,40.0,25.1,30.01,NW,309,4.0,8.0,55,0.05,,,0.06,Wunderground v.1.15,2013-12-19 18:00:00,
2013-12-19 13:05:00,39.9,25.0,30.01,NNW,331,4.0,8.0,55,0.05,,,0.06,Wunderground v.1.15,2013-12-19 18:05:00,
2013-12-19 13:15:00,40.0,25.1,30.02,NNE,25,4.0,8.0,55,0.05,,,0.07,Wunderground v.1.15,2013-12-19 18:15:00,
2013-12-19 13:20:00,40.0,26.0,30.01,West,272,3.0,3.0,57,0.05,,,0.07,Wunderground v.1.15,2013-12-19 18:20:00,
2013-12-19 13:25:00,40.2,25.7,30.02,WNW,288,2.0,8.0,56,0.05,,,0.07,Wunderground v.1.15,2013-12-19 18:25:00,
2013-12-19 13:30:00,40.3,25.4,30.01,NW,319,3.0,8.0,55,0.04,,,0.08,Wunderground v.1.15,2013-12-19 18:30:00,
2013-12-19 13:35:00,40.3,25.4,30.01,WNW,283,4.0,8.0,55,0.04,,,0.08,Wunderground v.1.15,2013-12-19 18:35:00,
2013-12-19 13:40:00,40.5,26.0,30.01,West,259,4.0,8.0,56,0.06,,,0.09,Wunderground v.1.15,2013-12-19 18:40:00,
2013-12-19 13:45:00,40.8,25.9,30.01,North,350,3.0,8.0,55,0.06,,,0.09,Wunderground v.1.15,2013-12-19 18:45:00,
2013-12-19 13:50:00,40.9,25.5,30.01,WNW,292,3.0,8.0,54,0.05,,,0.10,Wunderground v.1.15,2013-12-19 18:50:00,
2013-12-19 13:55:00,41.0,25.6,30.01,NW,306,4.0,8.0,54,0.05,,,0.10,Wunderground v.1.15,2013-12-19 18:55:00,
2013-12-19 14:00:00,41.3,26.3,30.01,WSW,248,4.0,4.0,55,0.05,,,0.11,Wunderground v.1.15,2013-12-19 19:00:00,
2013-12-19 14:05:00,41.1,25.7,30.01,North,9,4.0,8.0,54,0.05,,,0.11,Wunderground v.1.15,2013-12-19 19:05:00,
2013-12-19 14:15:00,41.1,26.1,30.02,West,259,4.0,8.0,55,0.05,,,0.12,Wunderground v.1.15,2013-12-19 19:15:00,
2013-12-19 14:20:00,41.2,26.2,30.01,WNW,302,4.0,4.0,55,0.05,,,0.12,Wunderground v.1.15,2013-12-19 19:20:00,
2013-12-19 14:25:00,41.6,26.6,30.02,NW,313,3.0,8.0,55,0.05,,,0.13,Wunderground v.1.15,2013-12-19 19:25:00,
2013-12-19 14:30:00,41.5,26.1,30.01,SSW,209,4.0,8.0,54,0.05,,,0.13,Wunderground v.1.15,2013-12-19 19:30:00,
2013-12-19 14:35:00,41.3,25.9,30.02,NW,317,4.0,8.0,54,0.06,,,0.14,Wunderground v.1.15,2013-12-19 19:35:00,
2013-12-19 14:40:00,41.3,26.8,30.02,West,270,4.0,4.0,56,0.06,,,0.14,Wunderground v.1.15,2013-12-19 19:40:00,
2013-12-19 14:45:00,41.1,26.1,30.02,WNW,297,3.0,8.0,55,0.06,,,0.14,Wunderground v.1.15,2013-12-19 19:45:00,
2013-12-19 14:55:00,40.5,26.0,30.02,NW,311,2.0,8.0,56,0.05,,,0.15,Wunderground v.1.15,2013-12-19 19:55:00,
2013-12-19 15:00:00,40.2,26.6,30.02,NNW,333,2.0,8.0,58,0.04,,,0.15,Wunderground v.1.15,2013-12-19 20:00:00,
2013-12-19 15:05:00,40.0,26.8,30.03,North,360,2.0,8.0,59,0.00,,,0.15,Wunderground v.1.15,2013-12-19 20:05:00,
2013-12-19 15:10:00,39.9,26.3,30.03,West,267,2.0,8.0,58,0.00,,,0.16,Wunderground v.1.15,2013-12-19 20:10:00,
2013-12-19 15:15:00,39.8,26.2,30.03,NNW,338,2.0,8.0,58,0.00,,,0.16,Wunderground v.1.15,2013-12-19 20:15:00,
2013-12-19 15:20:00,39.7,26.5,30.03,NW,310,2.0,8.0,59,0.00,,,0.16,Wunderground v.1.15,2013-12-19 20:20:00,
2013-12-19 15:25:00,39.7,26.1,30.03,North,360,2.0,8.0,58,0.00,,,0.16,Wunderground v.1.15,2013-12-19 20:25:00,
2013-12-19 15:30:00,39.7,26.5,30.03,NW,305,2.0,2.0,59,0.00,,,0.16,Wunderground v.1.15,2013-12-19 20:30:00,
2013-12-19 15:35:00,39.4,26.7,30.04,NW,305,1.0,8.0,60,0.00,,,0.16,Wunderground v.1.15,2013-12-19 20:35:00,
2013-12-19 15:40:00,39.3,26.2,30.04,NW,304,1.0,8.0,59,0.00,,,0.16,Wunderground v.1.15,2013-12-19 20:40:00,
2013-12-19 15:50:00,39.2,26.9,30.04,NNW,341,2.0,2.0,61,0.00,,,0.17,Wunderground v.1.15,2013-12-19 20:50:00,
2013-12-19 15:55:00,39.0,26.7,30.05,WNW,296,1.0,8.0,61,0.00,,,0.17,Wunderground v.1.15,2013-12-19 20:55:00,
2013-12-19 16:00:00,38.8,26.1,30.05,NW,325,1.0,8.0,60,0.00,,,0.17,Wunderground v.1.15,2013-12-19 21:00:00,
2013-12-19 16:10:00,38.7,26.4,30.05,WNW,294,1.0,1.0,61,0.00,,,0.17,Wunderground v.1.15,2013-12-19 21:10:00,
2013-12-19 16:15:00,38.6,26.3,30.05,WNW,288,1.0,8.0,61,0.00,,,0.17,Wunderground v.1.15,2013-12-19 21:15:00,
2013-12-19 16:20:00,38.5,27.0,30.05,WNW,288,1.0,8.0,63,0.00,,,0.17,Wunderground v.1.15,2013-12-19 21:20:00,
2013-12-19 16:25:00,38.4,26.5,30.05,NW,319,1.0,8.0,62,0.00,,,0.17,Wunderground v.1.15,2013-12-19 21:25:00,
2013-12-19 16:30:00,38.3,26.8,30.05,NW,315,2.0,8.0,63,0.00,,,0.17,Wunderground v.1.15,2013-12-19 21:30:00,
2013-12-19 16:35:00,38.5,26.6,30.05,NW,304,2.0,8.0,62,0.00,,,0.17,Wunderground v.1.15,2013-12-19 21:35:00,
2013-12-19 16:40:00,38.6,26.7,30.05,WNW,292,2.0,8.0,62,0.00,,,0.17,Wunderground v.1.15,2013-12-19 21:40:00,
2013-12-19 16:45:00,38.6,26.7,30.06,West,265,2.0,8.0,62,0.00,,,0.17,Wunderground v.1.15,2013-12-19 21:45:00,
2013-12-19 16:55:00,38.8,26.9,30.06,NW,304,2.0,8.0,62,0.00,,,0.17,Wunderground v.1.15,2013-12-19 21:55:00,
2013-12-19 17:00:00,38.7,27.2,30.07,NW,304,1.0,8.0,63,0.00,,,0.17,Wunderground v.1.15,2013-12-19 22:00:00,
2013-12-19 17:05:00,38.7,26.8,30.07,NNW,344,1.0,8.0,62,0.00,,,0.17,Wunderground v.1.15,2013-12-19 22:05:00,
2013-12-19 17:10:00,38.6,26.7,30.07,NNW,338,1.0,1.0,62,0.00,,,0.17,Wunderground v.1.15,2013-12-19 22:10:00,
2013-12-19 17:15:00,38.4,26.9,30.07,NNW,329,1.0,8.0,63,0.00,,,0.17,Wunderground v.1.15,2013-12-19 22:15:00,
2013-12-19 17:20:00,38.4,26.9,30.08,NNW,329,1.0,1.0,63,0.00,,,0.17,Wunderground v.1.15,2013-12-19 22:20:00,
2013-12-19 17:25:00,38.4,26.9,30.08,North,360,1.0,2.0,63,0.00,,,0.17,Wunderground v.1.15,2013-12-19 22:25:00,
2013-12-19 17:30:00,38.5,27.0,30.07,NW,325,1.0,8.0,63,0.00,,,0.17,Wunderground v.1.15,2013-12-19 22:30:00,
2013-12-19 17:40:00,38.6,27.1,30.07,NW,317,1.0,8.0,63,0.00,,,0.17,Wunderground v.1.15,2013-12-19 22:40:00,
2013-12-19 17:45:00,38.7,27.2,30.07,NW,319,1.0,8.0,63,0.00,,,0.17,Wunderground v.1.15,2013-12-19 22:45:00,
2013-12-19 17:50:00,38.8,27.7,30.07,NNW,344,1.0,8.0,64,0.00,,,0.17,Wunderground v.1.15,2013-12-19 22:50:00,
2013-12-19 17:55:00,38.6,27.5,30.08,NNW,344,1.0,8.0,64,0.00,,,0.17,Wunderground v.1.15,2013-12-19 22:55:00,
2013-12-19 18:00:00,38.6,27.8,30.08,NNW,336,0.0,8.0,65,0.00,,,0.17,Wunderground v.1.15,2013-12-19 23:00:00,
2013-12-19 18:05:00,38.8,27.7,30.08,NNW,333,1.0,8.0,64,0.00,,,0.17,Wunderground v.1.15,2013-12-19 23:05:00,
2013-12-19 18:10:00,38.9,27.8,30.08,NW,319,1.0,8.0,64,0.00,,,0.17,Wunderground v.1.15,2013-12-19 23:10:00,
2013-12-19 18:20:00,39.0,27.5,30.08,SSE,167,1.0,1.0,63,0.00,,,0.17,Wunderground v.1.15,2013-12-19 23:20:00,
2013-12-19 18:25:00,39.1,27.6,30.08,WSW,240,0.0,8.0,63,0.00,,,0.17,Wunderground v.1.15,2013-12-19 23:25:00,
2013-12-19 18:30:00,39.1,27.6,30.09,North,360,1.0,8.0,63,0.00,,,0.17,Wunderground v.1.15,2013-12-19 23:30:00,
2013-12-19 18:35:00,39.1,27.9,30.09,North,355,1.0,8.0,64,0.00,,,0.17,Wunderground v.1.15,2013-12-19 23:35:00,
2013-12-19 18:40:00,39.4,27.8,30.09,NNW,330,1.0,1.0,63,0.00,,,0.17,Wunderground v.1.15,2013-12-19 23:40:00,
2013-12-19 18:45:00,39.3,27.7,30.09,NNW,333,1.0,8.0,63,0.00,,,0.17,Wunderground v.1.15,2013-12-19 23:45:00,
2013-12-19 18:50:00,39.4,28.2,30.09,NW,304,1.0,8.0,64,0.00,,,0.18,Wunderground v.1.15,2013-12-19 23:50:00,
2013-12-19 18:55:00,39.5,28.3,30.09,WNW,284,1.0,8.0,64,0.00,,,0.18,Wunderground v.1.15,2013-12-19 23:55:00,
2013-12-19 19:00:00,39.3,28.1,30.09,WNW,296,0.0,8.0,64,0.00,,,0.18,Wunderground v.1.15,2013-12-20 00:00:00,
2013-12-19 19:05:00,39.2,28.0,30.09,NNE,13,0.0,8.0,64,0.00,,,0.18,Wunderground v.1.15,2013-12-20 00:05:00,
2013-12-19 19:10:00,39.3,28.1,30.10,West,273,1.0,8.0,64,0.00,,,0.18,Wunderground v.1.15,2013-12-20 00:10:00,
2013-12-19 19:20:00,39.5,27.9,30.10,NNW,327,1.0,1.0,63,0.00,,,0.18,Wunderground v.1.15,2013-12-20 00:20:00,
2013-12-19 19:25:00,39.4,28.6,30.10,NW,306,0.0,8.0,65,0.00,,,0.18,Wunderground v.1.15,2013-12-20 00:25:00,
2013-12-19 19:35:00,39.5,28.3,30.10,WNW,283,1.0,8.0,64,0.00,,,0.18,Wunderground v.1.15,2013-12-20 00:35:00,
2013-12-19 19:40:00,39.5,27.9,30.10,NW,309,1.0,8.0,63,0.00,,,0.18,Wunderground v.1.15,2013-12-20 00:40:00,
2013-12-19 19:45:00,39.5,28.3,30.10,NW,309,0.0,8.0,64,0.00,,,0.18,Wunderground v.1.15,2013-12-20 00:45:00,
2013-12-19 19:50:00,39.2,28.0,30.10,NW,320,0.0,8.0,64,0.00,,,0.18,Wunderground v.1.15,2013-12-20 00:50:00,
2013-12-19 19:55:00,39.2,28.0,30.10,NNW,328,1.0,8.0,64,0.00,,,0.18,Wunderground v.1.15,2013-12-20 00:55:00,
2013-12-19 20:05:00,39.2,28.0,30.11,NW,313,1.0,8.0,64,0.00,,,0.18,Wunderground v.1.15,2013-12-20 01:05:00,
2013-12-19 20:10:00,39.0,28.2,30.11,NW,313,1.0,1.0,65,0.00,,,0.18,Wunderground v.1.15,2013-12-20 01:10:00,
2013-12-19 20:15:00,38.8,28.4,30.11,NW,309,1.0,2.0,66,0.00,,,0.18,Wunderground v.1.15,2013-12-20 01:15:00,
2013-12-19 20:20:00,38.6,28.2,30.11,NW,309,1.0,1.0,66,0.00,,,0.18,Wunderground v.1.15,2013-12-20 01:20:00,
2013-12-19 20:30:00,38.2,28.2,30.11,WNW,300,0.0,8.0,67,0.00,,,0.18,Wunderground v.1.15,2013-12-20 01:30:00,
2013-12-19 20:35:00,38.1,28.1,30.11,WNW,300,0.0,8.0,67,0.00,,,0.18,Wunderground v.1.15,2013-12-20 01:35:00,
2013-12-19 20:40:00,38.2,28.2,30.12,WNW,301,0.0,8.0,67,0.00,,,0.18,Wunderground v.1.15,2013-12-20 01:40:00,
2013-12-19 20:45:00,38.2,28.2,30.12,WNW,289,1.0,8.0,67,0.00,,,0.18,Wunderground v.1.15,2013-12-20 01:45:00,
2013-12-19 20:50:00,38.2,28.2,30.12,WNW,289,0.0,8.0,67,0.00,,,0.18,Wunderground v.1.15,2013-12-20 01:50:00,
2013-12-19 20:55:00,38.1,28.5,30.12,WNW,289,0.0,8.0,68,0.00,,,0.18,Wunderground v.1.15,2013-12-20 01:55:00,
2013-12-19 21:00:00,38.0,28.4,30.13,NW,317,0.0,8.0,68,0.00,,,0.18,Wunderground v.1.15,2013-12-20 02:00:00,
2013-12-19 21:05:00,38.1,28.5,30.12,NW,317,0.0,8.0,68,0.00,,,0.18,Wunderground v.1.15,2013-12-20 02:05:00,
2013-12-19 21:10:00,38.2,28.2,30.12,NW,317,0.0,8.0,67,0.00,,,0.18,Wunderground v.1.15,2013-12-20 02:10:00,
2013-12-19 21:15:00,38.3,28.3,30.12,NW,317,0.0,8.0,67,0.00,,,0.18,Wunderground v.1.15,2013-12-20 02:15:00,
2013-12-19 21:20:00,38.2,28.9,30.12,NW,317,0.0,8.0,69,0.00,,,0.18,Wunderground v.1.15,2013-12-20 02:20:00,
2013-12-19 21:25:00,37.9,29.0,30.12,NW,317,0.0,8.0,70,0.00,,,0.18,Wunderground v.1.15,2013-12-20 02:25:00,
2013-12-19 21:30:00,37.6,28.7,30.12,NW,317,0.0,8.0,70,0.00,,,0.18,Wunderground v.1.15,2013-12-20 02:30:00,
2013-12-19 21:40:00,36.9,28.4,30.13,NW,317,0.0,8.0,71,0.00,,,0.18,Wunderground v.1.15,2013-12-20 02:40:00,
2013-12-19 21:45:00,36.9,28.0,30.13,NW,317,0.0,8.0,70,0.00,,,0.18,Wunderground v.1.15,2013-12-20 02:45:00,
2013-12-19 21:55:00,37.0,28.1,30.13,NW,317,0.0,8.0,70,0.00,,,0.18,Wunderground v.1.15,2013-12-20 02:55:00,
2013-12-19 22:00:00,36.7,27.8,30.12,NW,317,0.0,8.0,70,0.00,,,0.18,Wunderground v.1.15,2013-12-20 03:00:00,
2013-12-19 22:05:00,36.5,27.3,30.12,NW,317,0.0,8.0,69,0.00,,,0.18,Wunderground v.1.15,2013-12-20 03:05:00,
2013-12-19 22:10:00,36.4,27.2,30.12,NW,317,0.0,8.0,69,0.00,,,0.18,Wunderground v.1.15,2013-12-20 03:10:00,
2013-12-19 22:15:00,36.3,27.4,30.13,NW,317,0.0,8.0,70,0.00,,,0.18,Wunderground v.1.15,2013-12-20 03:15:00,
2013-12-19 22:20:00,36.2,27.4,30.13,NW,317,0.0,8.0,70,0.00,,,0.18,Wunderground v.1.15,2013-12-20 03:20:00,
2013-12-19 22:25:00,36.2,27.4,30.12,NW,317,0.0,8.0,70,0.00,,,0.19,Wunderground v.1.15,2013-12-20 03:25:00,
2013-12-19 22:30:00,36.2,27.4,30.13,NW,317,0.0,8.0,70,0.00,,,0.19,Wunderground v.1.15,2013-12-20 03:30:00,
2013-12-19 22:40:00,36.2,27.4,30.13,NW,317,0.0,8.0,70,0.00,,,0.19,Wunderground v.1.15,2013-12-20 03:40:00,
2013-12-19 22:45:00,36.2,27.4,30.13,NW,317,0.0,8.0,70,0.00,,,0.19,Wunderground v.1.15,2013-12-20 03:45:00,
2013-12-19 22:50:00,36.3,27.1,30.12,NW,317,0.0,8.0,69,0.00,,,0.19,Wunderground v.1.15,2013-12-20 03:50:00,
2013-12-19 22:55:00,36.3,27.1,30.12,NW,317,0.0,8.0,69,0.00,,,0.19,Wunderground v.1.15,2013-12-20 03:55:00,
2013-12-19 23:00:00,36.2,27.4,30.12,NW,317,0.0,8.0,70,0.00,,,0.19,Wunderground v.1.15,2013-12-20 04:00:00,
2013-12-19 23:05:00,36.1,27.3,30.13,NW,317,0.0,8.0,70,0.00,,,0.19,Wunderground v.1.15,2013-12-20 04:05:00,
2013-12-19 23:10:00,36.0,27.5,30.13,NW,317,0.0,8.0,71,0.00,,,0.19,Wunderground v.1.15,2013-12-20 04:10:00,
2013-12-19 23:15:00,35.9,27.4,30.13,NW,317,0.0,8.0,71,0.00,,,0.19,Wunderground v.1.15,2013-12-20 04:15:00,
2013-12-19 23:25:00,35.8,27.7,30.13,NW,321,0.0,8.0,72,0.00,,,0.19,Wunderground v.1.15,2013-12-20 04:25:00,
2013-12-19 23:30:00,35.7,27.6,30.13,NW,321,0.0,8.0,72,0.00,,,0.19,Wunderground v.1.15,2013-12-20 04:30:00,
2013-12-19 23:35:00,35.7,27.6,30.13,NW,321,0.0,8.0,72,0.00,,,0.19,Wunderground v.1.15,2013-12-20 04:35:00,
2013-12-19 23:40:00,35.7,27.6,30.13,NW,321,0.0,8.0,72,0.00,,,0.19,Wunderground v.1.15,2013-12-20 04:40:00,
2013-12-19 23:45:00,35.6,27.1,30.12,NW,321,0.0,8.0,71,0.00,,,0.19,Wunderground v.1.15,2013-12-20 04:45:00,
2013-12-19 23:50:00,35.6,27.1,30.12,NW,321,0.0,8.0,71,0.00,,,0.19,Wunderground v.1.15,2013-12-20 04:50:00,
2013-12-19 23:55:00,35.6,27.1,30.13,NW,321,0.0,8.0,71,0.00,,,0.19,Wunderground v.1.15,2013-12-20 04:55:00,